Regional Weather Roundup
Issued by NWS Albany, NY

Home | Current Version | Previous Version | Text Only | Print | Product List | Glossary On
Versions: 1 2 3 4 5 6 7 8 9 10 11 12 13 14 15 16 17 18 19 20 21 22 23 24 25 26 27 28 29 30 31 32 33 34 35 36 37 38 39 40 41 42 43 44 45 46 47 48 49
000
ASUS41 KALY 260310
RWRALY

NEW YORK STATE HOURLY WEATHER ROUNDUP
NATIONAL WEATHER SERVICE ALBANY NY
1000 PM EST THU DEC 25 2014

NOTE: "FAIR" INDICATES FEW OR NO CLOUDS BELOW 12,000 FEET WITH NO
SIGNIFICANT WEATHER AND/OR NO OBSTRUCTIONS TO VISIBILITY.

NYZ032-033-038>043-046>054-057>066-NYZ062>081-260400-
EAST


CITY           SKY/WX    TMP DP  RH WIND       PRES   REMARKS
ALBANY         CLOUDY    43  29  57 W17       30.05R
GLENS FALLS    CLOUDY    43  26  51 W9G17     29.98R
POUGHKEEPSIE   CLEAR     42  28  57 W9        30.04R
NEWBURGH       PTCLDY    41  30  65 W12       30.05R
MONTGOMERY     PTCLDY    43  27  53 W5        30.05R
WHITE PLAINS   CLEAR     44  28  53 W9        30.03R
ISLIP          PTCLDY    41  30  65 SW6       30.05R
NEW YORK CITY  PTCLDY    47  28  47 W15G22    30.08R
CENTRAL PARK   CLEAR     46  28  49 W9G16     30.10R
$$

NYZ005>009-017-018-044>046-055-056-260400-
CENTRAL


CITY           SKY/WX    TMP DP  RH WIND       PRES   REMARKS
FULTON         CLOUDY    41  30  65 W10       30.07R
SYRACUSE       DRIZZLE   40  32  73 W13       30.08R WCI  32
ROME           CLOUDY    40  29  64 W17G25    30.07R WCI  31
ELMIRA         CLOUDY    40  28  62 W9        30.11R WCI  34
BINGHAMTON     CLOUDY    37  27  67 W17G24    30.06R WCI  27
MONTICELLO     CLOUDY    37  27  65 NW12G21   30.05R WCI  30
$$

NYZ026>034-041>043-260400-
NORTH


CITY           SKY/WX    TMP DP  RH WIND       PRES   REMARKS
WATERTOWN      CLOUDY    41  29  62 W17G25    30.04R
FORT DRUM      NOT AVBL
MASSENA        CLOUDY    40  29  64 SW18G26   29.93R WCI  31
SARANAC LAKE   CLOUDY    34  26  72 W13G24    29.89R WCI  25
PLATTSBURGH    MOCLDY    41  25  53 SW6G18    29.90R
$$

NYZ001>004-010>016-019>021-260400-
WEST


CITY           SKY/WX    TMP DP  RH WIND       PRES   REMARKS
NIAGARA FALLS  CLOUDY    38  29  70 SW17G29   30.09R WCI  28
BUFFALO        CLOUDY    38  28  67 W20G31    30.10R WCI  28
DUNKIRK        CLOUDY    38  30  73 SW15G25   30.14R WCI  29
JAMESTOWN      CLOUDY    34  27  75 SW12G18   30.11S WCI  25
WELLSVILLE     CLOUDY    34  27  75 W13       30.09R WCI  25
ROCHESTER      CLOUDY    41  30  65 W16G26    30.09R
PENN YAN       CLOUDY    40  29  64 SW10G18   30.10R WCI  33
$$

             KEY
       WCI = WIND CHILL INDEX
       VSB = VISIBILITY
       HX  = HEAT INDEX
$$



USA.gov is the U.S. government's official web portal to all federal, state and local government web resources and services.